Rbgn^[z[y[W
メイン
   新天体発見情報
     Comet C/2020 N1 (PANSTARRS)
投稿するにはまず登録を

スレッド表示 | 新しいものから 前のトピック | 次のトピック | 下へ
投稿者 スレッド
佐藤裕久
投稿日時: 2020-7-23 14:28
モデレータ
登録日: 2005-6-12
居住地: 日本
投稿: 2129
オンライン
Comet C/2020 N1 (PANSTARRS)

R. Weryk (ハワイ大学, 天文学研究所)の通報によると、7月1-3日UT、Haleakalaにある
Pan-STARRS1 1.8-m Ritchey-Chretien反射望遠鏡で得た画像から彗星を発見した。
発見画像は外見上は小惑星状に見えた。
R. Werykは、7月1.55日UT、H. JanuszewskiとT. BurdullisがMauna KeaにあるCanada-
France-Hawaii望遠鏡で得た3枚のフォローアップgri-バンド90露出では、この天体は
"ハッキリとした彗星"に見え、非常に集光した頭部の半値全幅(FWHM)は近傍の恒星の
1".2に比較して1".4で、p.a. 240°に5"の真直ぐな尾があると追記した。
小惑星センターのPCCP webpageに公表後、佐藤英貴氏(東京都文京区, 7月14.44日,
60秒露出12枚のスタック, 0.61-m f/6.5 アストログラフ, Sierra Remote天文台, Auberry
近郊,カリフォルニア州, 遠隔操作:強く集光した5" のコマが見るが尾はない。5".0の
円形範囲で測定した光度20.2等であった)ら、CCD位置観測者により彗星状と観測された。

彗星機能の報告は次の通り:

OC   Date        Reporter           Coma    Tail    PA          Exposures
J95  2020-07-11  P. Birtwhistle     6"       19"    245
F51  2020-07-11  R. Weryk           0".21    5"     240
U69  2020-07-14  H. Sato            5"                            12x60s
F65  2020-07-18  P. Breitenstein    2".5     12"    235           5x100s

発見位置は次のとおり、

     2020 UT             R.A. (2000) Decl.       Mag.
     July  1.61805    0 20 18.52   +34 27 49.7   21.4
           3.57659    0 21 35.42   +34 51 37.0   20.7
           3.58457    0 21 35.72   +34 51 42.8   21.1
           3.59260    0 21 36.02   +34 51 48.8   20.9

MPCの双曲線線軌道要素、位置推算表は次のとおり、

Orbital elements:
    C/2020 N1 (PANSTARRS)                                                       
Epoch 2021 Mar. 7.0 TT = JDT 2459280.5                                          
T 2021 Mar. 12.07110 TT                                 Rudenko                 
q   1.3178040            (2000.0)            P               Q                  
z  -0.0003741      Peri.  186.88744     -0.27401893     -0.82869849             
 +/-0.0003205      Node   279.94278     +0.90431374     -0.04931819             
e   1.0004929      Incl.   29.70080     +0.32730762     -0.55751819             
From 49 observations 2020 July 1-18, mean residual 0".4.                        
                                                                                
    C/2020 N1 (PANSTARRS)                                                       
Epoch 2020 May 31.0 TT = JDT 2459000.5                                          
T 2021 Mar. 12.09209 TT                                 Rudenko                 
q   1.3178035            (2000.0)            P               Q                  
z  -0.0002219      Peri.  186.89452     -0.27409998     -0.82866922             
 +/-0.0003205      Node   279.94152     +0.90431333     -0.04941203             
e   1.0002925      Incl.   29.70095     +0.32724089     -0.55755338             
From 49 observations 2020 July 1-18, mean residual 0".4.                        
                                                                                
Ephemeris:
Date    TT    R. A. (2000) Decl.     Delta      r    Elong.  Phase   m1
2020 06 19    00 11 19.9 +31 57 59   3.8345  3.6817    73.7    15.4  21.1
...
2020 07 04    00 21 51.6 +34 56 46   3.5032  3.5285    83.1    16.6  20.7
...
2020 07 12    00 26 41.3 +36 35 23   3.3266  3.4463    88.1    17.1  20.5
...
2020 07 18    00 29 51.2 +37 50 34   3.1950  3.3844    91.9    17.5  20.3
2020 07 19    00 30 20.3 +38 03 11   3.1732  3.3740    92.5    17.5  20.3
2020 07 20    00 30 48.6 +38 15 48   3.1514  3.3637    93.1    17.6  20.3
...
2020 07 26    00 33 20.7 +39 31 53   3.0217  3.3015    96.9    17.8  20.1
...
2020 08 03    00 35 51.4 +41 13 36   2.8520  3.2183   101.9    18.0  19.9
...
2020 08 18    00 37 15.9 +44 21 22   2.5471  3.0613   111.1    18.0  19.4

(MPEC 2020-O31、CBET 4815)

スレッド表示 | 新しいものから 前のトピック | 次のトピック | トップ

投稿するにはまず登録を
 
© 1999 Tsutomu Seki.